Contract 0xaf72329e42d0be8bee137bc3420f20fc04a49efb

 
Txn Hash Method
Block
From
To
Value [Txn Fee]
0x7678f95d63c181ae8588e162c75846c85a21a56258ffc642e1ed160c606dad640x6080604017732532021-09-30 3:27:42494 days 18 hrs agodForce: Deployer 2 IN  Contract Creation0 ETH0.009603285609 ETH
[ Download CSV Export 
Latest 25 internal transaction
Parent Txn Hash Block From To Value
0x5d7dd5c404adbac9d34f5c7dbed24768cc20619266a42de421df4d22dbb78b19586059042023-02-06 20:35:591 hr 19 mins ago dForce: iUSDC Token 0xaf72329e42d0be8bee137bc3420f20fc04a49efb0 ETH
0x3be2b83668f5dc314d43ee7aad25608f0cbe0110c9ea53b88669d806018e67fe585976562023-02-06 19:53:312 hrs 1 min ago dForce: iUSDC Token 0xaf72329e42d0be8bee137bc3420f20fc04a49efb0 ETH
0x929450dbda6f9837462ef97f665fd812e0d2ad0c93077bb302062b015b11e9d6585904032023-02-06 19:15:322 hrs 39 mins ago dForce: iDAI Token 0xaf72329e42d0be8bee137bc3420f20fc04a49efb0 ETH
0xcfe380b964e85457c2c766cdfb52148e27d97d749c6905f3be4bddcdaf77e976585788112023-02-06 18:16:103 hrs 39 mins ago 0x0385f851060c09a552f1a28ea3f612660256cbaa 0xaf72329e42d0be8bee137bc3420f20fc04a49efb0 ETH
0x097ccc8ac2c28269726eecb19c16d1fcc1cf76992d1460668502b0a5954b0171585751512023-02-06 17:57:573 hrs 57 mins ago dForce: iDAI Token 0xaf72329e42d0be8bee137bc3420f20fc04a49efb0 ETH
0xd929e0182158136a55a42cac9a3a751cca6bae5047502e40d0c04ef8a17c0bd4585670452023-02-06 17:18:414 hrs 36 mins ago dForce: iUSDC Token 0xaf72329e42d0be8bee137bc3420f20fc04a49efb0 ETH
0x55bc69399af458e32d733d505256e6980b4a5e15db97c8afa25dd357b08eb0e9585498472023-02-06 16:01:245 hrs 53 mins ago 0x2dd5a62a5d4e4d20622061c823f9648e3078012d 0xaf72329e42d0be8bee137bc3420f20fc04a49efb0 ETH
0x55bc69399af458e32d733d505256e6980b4a5e15db97c8afa25dd357b08eb0e9585498472023-02-06 16:01:245 hrs 53 mins ago 0x2dd5a62a5d4e4d20622061c823f9648e3078012d 0xaf72329e42d0be8bee137bc3420f20fc04a49efb0 ETH
0x55bc69399af458e32d733d505256e6980b4a5e15db97c8afa25dd357b08eb0e9585498472023-02-06 16:01:245 hrs 53 mins ago 0x2dd5a62a5d4e4d20622061c823f9648e3078012d 0xaf72329e42d0be8bee137bc3420f20fc04a49efb0 ETH
0x55bc69399af458e32d733d505256e6980b4a5e15db97c8afa25dd357b08eb0e9585498472023-02-06 16:01:245 hrs 53 mins ago 0x2dd5a62a5d4e4d20622061c823f9648e3078012d 0xaf72329e42d0be8bee137bc3420f20fc04a49efb0 ETH
0x55bc69399af458e32d733d505256e6980b4a5e15db97c8afa25dd357b08eb0e9585498472023-02-06 16:01:245 hrs 53 mins ago dForce: iUSDC Token 0xaf72329e42d0be8bee137bc3420f20fc04a49efb0 ETH
0x3571cbaea95e6e4a0fd94e0cbb2fbf235ea5d679336f85242bc5f51f26fb7b38585421072023-02-06 15:28:046 hrs 27 mins ago dForce: iDAI Token 0xaf72329e42d0be8bee137bc3420f20fc04a49efb0 ETH
0xf77e878273514b2039a58fa2f7a45480e34a6c4dfbeed092c2db6524e9bfadc9585419172023-02-06 15:27:156 hrs 28 mins ago 0xb3ab7148cccaf66686ad6c1be24d83e58e6a504e 0xaf72329e42d0be8bee137bc3420f20fc04a49efb0 ETH
0x46272cfb4833405f60d3204804bc0f4a06185a893054f9c6a94118a5e57df584585417552023-02-06 15:26:336 hrs 28 mins ago dForce: iUSDT Token 0xaf72329e42d0be8bee137bc3420f20fc04a49efb0 ETH
0x1bb6d3704d76c94d0f938a9075e9870e0fe7aca6022c7396baab8c3a0c4362ea585416412023-02-06 15:26:046 hrs 29 mins ago dForce: iUSDC Token 0xaf72329e42d0be8bee137bc3420f20fc04a49efb0 ETH
0x2ace5cc37ccfa283e5fc86e8835b8b24e930d1635ac9596400b361539700d4b7585381862023-02-06 15:11:266 hrs 43 mins ago dForce: iUSDC Token 0xaf72329e42d0be8bee137bc3420f20fc04a49efb0 ETH
0x4de54c34a48c1d5990ec162f96560c7703023e58a11bd0db39a1ef1e95bda874585328272023-02-06 14:48:087 hrs 7 mins ago dForce: iUSDC Token 0xaf72329e42d0be8bee137bc3420f20fc04a49efb0 ETH
0x6610035f66d77add9a3c0f4bb7c61a39d39af855cad14e4d1e756d2559e91fad585327882023-02-06 14:47:577 hrs 7 mins ago dForce: iUSDC Token 0xaf72329e42d0be8bee137bc3420f20fc04a49efb0 ETH
0x71404f95e5f3d2c9a1b82a4eda84ea42b62fbff589166e648cef5ca3935899f1585132762023-02-06 13:20:028 hrs 35 mins ago dForce: iDAI Token 0xaf72329e42d0be8bee137bc3420f20fc04a49efb0 ETH
0xcc1f2ed84ebc95d4a115e15c73df5fe9946affa2cca2db85df40554cbeba0220585130902023-02-06 13:19:108 hrs 36 mins ago dForce: iDAI Token 0xaf72329e42d0be8bee137bc3420f20fc04a49efb0 ETH
0xb15c0b07cb94c146110f20863f39d7260fc6fc4dcb587996964e1abaf3b33c73585130552023-02-06 13:19:008 hrs 36 mins ago dForce: iDAI Token 0xaf72329e42d0be8bee137bc3420f20fc04a49efb0 ETH
0x8c8c94d7298ba93dd9bf3c23a155b654e5231d4abb787eca03321710561d554b585129362023-02-06 13:18:268 hrs 36 mins ago dForce: iDAI Token 0xaf72329e42d0be8bee137bc3420f20fc04a49efb0 ETH
0x60e89750a946f9f32cb18ad04018416d3ad99012ca7d7cfcff108476a395dcaa585128622023-02-06 13:18:048 hrs 37 mins ago dForce: iDAI Token 0xaf72329e42d0be8bee137bc3420f20fc04a49efb0 ETH
0x79e65e6cca657346d358743f5463523f15719e84a64ba46ae8461801e47d365b585128292023-02-06 13:17:558 hrs 37 mins ago dForce: iDAI Token 0xaf72329e42d0be8bee137bc3420f20fc04a49efb0 ETH
0x32f2494100350f531c84854f7abd3f2348533ca0e2b7391fb6295079121d270f585127262023-02-06 13:17:258 hrs 37 mins ago dForce: iDAI Token 0xaf72329e42d0be8bee137bc3420f20fc04a49efb0 ETH
[ Download CSV Export 
Loading
Are you the contract creator? Verify and Publish your contract source code today!

Decompile ByteCode
0x608060405234801561001057600080fd5b506004361061007d5760003560e01c80635001f3b51161005b5780635001f3b5146100e15780637dbefcb6146100e9578063a385fb96146100f1578063e7bed802146100f95761007d565b806315f24053146100825780632191f92a146100bd5780634d24044c146100d9575b600080fd5b6100ab6004803603606081101561009857600080fd5b5080359060208101359060400135610101565b60408051918252519081900360200190f35b6100c56101c5565b604080519115158252519081900360200190f35b6100ab6101ca565b6100ab6101d0565b6100ab6101d6565b6100ab6101dc565b6100ab6101e2565b60008061010f8585856101e8565b905060006002548210156101515761014a61014160025461013b8560035461025690919063ffffffff16565b906102b8565b600154906102fa565b90506101ad565b6101aa610195610174600254670de0b6b3a764000061035490919063ffffffff16565b61013b61018c6002548761035490919063ffffffff16565b60045490610256565b6003546001546101a4916102fa565b906102fa565b90505b6000546101bb9082906102b8565b9695505050505050565b600190565b60025481565b60015481565b60035481565b60005481565b60045481565b6000826101f75750600061024f565b600061020385856102fa565b905082811161021d57670de0b6b3a764000091505061024f565b60006102298285610354565b90508085111561024557670de0b6b3a76400009250505061024f565b6101bb8582610396565b9392505050565b600082610265575060006102b2565b8282028284828161027257fe5b04146102af5760405162461bcd60e51b81526004018080602001828103825260218152602001806104ab6021913960400191505060405180910390fd5b90505b92915050565b60006102af83836040518060400160405280601a81526020017f536166654d6174683a206469766973696f6e206279207a65726f0000000000008152506103ae565b6000828201838110156102af576040805162461bcd60e51b815260206004820152601b60248201527f536166654d6174683a206164646974696f6e206f766572666c6f770000000000604482015290519081900360640190fd5b60006102af83836040518060400160405280601e81526020017f536166654d6174683a207375627472616374696f6e206f766572666c6f770000815250610450565b60006102af8261013b85670de0b6b3a7640000610256565b6000818361043a5760405162461bcd60e51b81526004018080602001828103825283818151815260200191508051906020019080838360005b838110156103ff5781810151838201526020016103e7565b50505050905090810190601f16801561042c5780820380516001836020036101000a031916815260200191505b509250505060405180910390fd5b50600083858161044657fe5b0495945050505050565b600081848411156104a25760405162461bcd60e51b81526020600482018181528351602484015283519092839260449091019190850190808383600083156103ff5781810151838201526020016103e7565b50505090039056fe536166654d6174683a206d756c7469706c69636174696f6e206f766572666c6f77a264697066735822122095e1fede4795595642e4bdd6fd63e3b997124bd1eb2db97a92a88717aa69b29a64736f6c634300060c0033
Block Transaction Gas Used Reward
Age Block Fee Address BC Fee Address Voting Power Jailed Incoming
Block Uncle Number Difficulty Gas Used Reward
Loading
Make sure to use the "Vote Down" button for any spammy posts, and the "Vote Up" for interesting conversations.